Location: Hilton Head Island
(32.2163°N, 80.7526°W)
Time: 15:06:36
(UTC-05:00)

Explorer 11/Cluster Stage 4 - Pass Details

Date: 18 February 2026
Orbit: 463 x 1176 km, 28.8° (Epoch: 6 March)

Event Time Altitude Azimuth Distance (km) Brightness Sun altitude
Rises 11:19:16 0° 215° (SW) 3,170 10.0 42.5°
Reaches altitude 10° 11:22:54 10° 193° (SSW) 2,081 9.5 42.9°
Maximum altitude 11:25:32 15° 159° (SSE) 1,682 9.6 43.1°
Drops below altitude 10° 11:27:56 10° 125° (SE) 1,870 9.4 43.3°
Sets 11:30:55 0° 100° (E) 2,654 9.6 43.6°
